Location: Abraham Lincoln Continuation High School
(33.9711°N, 117.3662°W)
Time: 13:50:00
(UTC+00:00)

Cosmos 2026 Rocket - Pass Details

Date: 21 September 2020
Orbit: 940 x 1000 km, 82.9° (Epoch: 28 October)

Event Time Altitude Azimuth Distance (km) Brightness Sun altitude
Rises 03:45:29 0° 0° (N) 3,721 7.3 -24.7°
Reaches altitude 10° 03:48:08 10° 7° (N) 2,772 6.5 -25.3°
Enters shadow 03:53:09 43° 51° (NE) 1,371 4.5 -26.3°
